Gander International Airport

Jump to: basic info | weather | frequencies | runways | comments

Related pages: nearby airports | nearby navaids | notams | map

Basic information (top)

Codes: YQX CYQX
Location: lon 48.936901, lat -54.568100, elev 496 ft / 151 m msl
Status: medium_airport
Scheduled airline service: yes
Links: Wikipedia Mobile

Weather (top)

Current conditions (rec'd 2015/04/27 00:09Z):

CYQX 270009Z 05014KT 1 1/4SM -RA BR OVC001 04/04 A2963 RMK FG5ST3 SLP040

Airport forecast (rec'd 2015/04/26 00:39Z):

TAF CYQX 262338Z 2700/2724 07012G22KT 1/8SM -DZ FG VV001 
      TEMPO 2700/2707 11/2SM -RA BR OVC002 
     FM270700 10012KT 1/8SM -DZ FG VV001 
     FM271500 10008KT P6SM SCT005 BKN012 
     FM272100 05012KT 6SM BR OVC006 
     FM272300 03015KT 11/2SM -DZ BR OVC003 
      RMK NXT FCST BY 270600Z

Frequencies (top)

Verify before use: may be inaccurate or out of date.

A/D: 128.5 MHz (APP/DEP)
ATIS: 124.8 MHz (ATIS)
GND: 121.9 MHz (GND)
OPS: 128.85 MHz (OUTCAST OPS)
RCO: 126.7 MHz (HALIFAX RDO)
TWR: 118.1 MHz (TWR)

Runways (top)

03/21: 10,200 x 200 ft (3,109 x 61 m) — paved — lighted

09/27 [CLOSED]: 1,875 x 50 ft (572 x 15 m) — paved — not lighted

13/31: 8,900 x 200 ft (2,713 x 61 m) — paved — lighted

Latest comments (top)

Gander hospitality: Our USAirways flight from Dublin to ... [read]

More... (top)

See also NOTAMs and nearby airports and navaids, or visit the Gander International Airport page at the main OurAirports website..